Regional Weather Roundup
Issued by NWS

Home | Current Version | Previous Version | Text Only | Print | Product List | Glossary Off
Versions: 1 2 3 4 5 6 7 8 9 10 11 12 13 14 15 16 17 18 19 20 21 22 23 24 25 26 27 28 29 30 31 32 33 34 35 36 37 38 39 40 41 42 43 44 45 46 47 48 49 50

000
ASUS43 KIND 010459
RWRIN

WEATHER ROUNDUP FOR INDIANA
NATIONAL WEATHER SERVICE INDIANAPOLIS IN
1200 AM EST SUN FEB 01 2015

NOTE: "FAIR" INDICATES FEW OR NO CLOUDS BELOW 12,000 FEET WITH NO
SIGNIFICANT WEATHER AND/OR OBSTRUCTIONS TO VISIBILITY.

* - STATION DOES NOT REPORT WEATHER SUCH AS PRECIPITATION OR FOG.

+ - STATION NOT QUALITY CONTROLLED BY THE NATIONAL WEATHER SERVICE.
    USE DATA WITH CAUTION...ESPECIALLY DEWPOINT AND RELATIVE
    HUMIDITY OBSERVATIONS.

INZ001>003-010>013-019-020-010600-
NORTHWEST INDIANA

CITY           SKY/WX    TMP DP  RH WIND       PRES   REMARKS
VALPARAISO     NOT AVBL

$$

LMZ046-743>745-010600-
SOUTHERN LAKE MICHIGAN

STATION/POSITION TIME  TEMP WIND        PRES
                       AIR  DIR/SP/G
                 (UTC) (F)  (DEG/KT/KT) (MB)
MICHIGAN CITY    0400   30   20/  8/ 10   N/A

$$

INZ004-005-014>016-021>024-010600-
NORTH CENTRAL INDIANA

CITY           SKY/WX    TMP DP  RH WIND       PRES   REMARKS
GOSHEN         LGT SNOW  33  31  92 SW5       30.16R VSB 1   WCI  29
PERU/GRISSOM   LGT SNOW  32  32 100 SW10      30.17S FOG     WCI  24
SOUTH BEND     LGT SNOW  33  32  96 CALM      30.17R VSB 1

$$

INZ006>009-017-018-025>027-010600-
NORTHEAST INDIANA

CITY           SKY/WX    TMP DP  RH WIND       PRES   REMARKS
ANGOLA *+      CLOUDY    30  30 100 CALM      30.15S
FORT WAYNE     LGT SNOW  32  31  96 SW7       30.18S WCI  26

$$

INZ028-029-035-036-043>045-051>053-010600-
WEST CENTRAL INDIANA

CITY           SKY/WX    TMP DP  RH WIND       PRES   REMARKS
GREENCASTLE +  CLOUDY    32  30  93 CALM      30.20S FOG
LAFAYETTE      MIX PCPN  32  31  96 S5        30.18F FOG     WCI  27
TERRE HAUTE    CLOUDY    33  31  92 E5        30.18F FOG     WCI  29

$$

INZ030>032-037>040-046>048-054>057-064-065-010600-
CENTRAL INDIANA

CITY           SKY/WX    TMP DP  RH WIND       PRES   REMARKS
INDIANAPOLIS   LGT SNOW  30  30 100 S6        30.20F FOG     WCI  24
-EAGLE CREEK   FRZ RAIN  32  31  96 CALM      30.19F FOG
KOKOMO *+      CLOUDY    34  28  80 SW10      30.19S WCI  26
MT COMFORT *+  CLOUDY    32 N/A N/A CALM      30.20F
SHELBYVILLE    FRZ RAIN  34  31  88 CALM      30.20F FOG

$$

INZ033-034-041-042-049-050-058-059-010600-
EAST CENTRAL INDIANA

CITY           SKY/WX    TMP DP  RH WIND       PRES   REMARKS
MUNCIE         LGT SNOW  32  30  92 MISG      30.19S FOG

$$

INZ060-061-067>069-081>083-085>088-010600-
SOUTHWEST INDIANA

CITY           SKY/WX    TMP DP  RH WIND       PRES   REMARKS
EVANSVILLE     CLOUDY    40  24  53 E9        30.14F
HUNTINGBURG *+ CLOUDY    37  23  56 SE9       30.18F

$$

INZ062-063-066-070>080-084-089>092-010600-
SOUTH CENTRAL AND SOUTHEAST INDIANA

CITY           SKY/WX    TMP DP  RH WIND       PRES   REMARKS
BLOOMINGTON    CLOUDY    32  30  92 SE3       30.19F
SEYMOUR +      CLOUDY    34  30  86 E5        30.21F WCI  30

$$




USA.gov is the U.S. government's official web portal to all federal, state and local government web resources and services.